Lid_Strength_Index
4 4 4 4 4 4 4 4 4 4 4 3 3 3 3 3 3 5 6 5 4 -1 -1 1 1 2 2 4 3 4 10 11 10 9 8 7 8 6 5 6 5 5 6 4 3
4 4 4 4 4 4 4 4 5 4 4 4 4 4 3 3 5 7 3 -1 -1 -2 3 3 4 3 5 5 5 7 9 9 6 6 7 7 7 7 6 6 6 6 4 3 3
4 5 4 4 5 4 4 5 4 5 4 4 4 4 3 3 7 8 -3 -2 -2 -1 3 4 2 4 6 5 5 6 9 6 6 5 5 6 8 6 7 7 6 7 6 5 4
4 4 4 4 4 4 4 5 5 5 4 4 4 4 4 5 14 5 -2 -3 -2 -0 4 5 5 6 7 7 5 8 6 6 5 5 6 7 7 7 6 6 4 5 4 5 5
5 4 4 4 4 4 4 4 5 5 5 5 5 4 6 9 10 4 -3 -1 -0 1 5 6 8 8 8 6 6 7 6 5 5 5 6 6 7 6 6 4 4 5 5 5 5
3 3 4 3 2 4 4 4 4 5 5 5 5 4 7 13 6 5 5 3 2 4 5 6 7 7 8 7 7 6 6 6 5 6 6 7 6 6 5 4 5 5 6 6 6
4 3 3 3 3 4 4 4 4 4 4 4 4 6 10 11 6 5 6 7 4 4 6 6 6 7 7 9 7 7 8 7 6 6 7 6 7 7 5 5 5 6 6 6 5
5 4 4 4 4 3 3 3 3 3 4 4 4 7 12 7 6 7 6 7 6 4 4 4 5 7 8 6 8 9 9 11 8 7 6 7 10 7 5 6 6 5 5 5 6
4 5 5 4 4 4 3 3 3 3 3 3 6 9 13 6 8 7 6 7 7 6 4 3 5 7 7 10 11 10 13 12 9 6 7 7 9 7 6 6 6 6 6 5 6
4 4 4 5 5 4 4 4 4 3 3 3 5 10 9 9 7 6 6 6 7 7 6 7 7 9 10 11 14 13 12 11 10 8 8 8 8 7 6 6 7 6 6 5 5
4 4 4 4 5 4 5 8 8 7 6 8 8 10 7 5 3 5 5 6 7 7 11 8 11 13 10 10 9 11 11 10 8 7 8 8 8 7 7 7 7 7 6 6 5
4 3 4 4 5 4 6 10 8 8 11 7 7 7 6 5 8 6 4 7 9 12 10 11 13 10 7 8 9 10 11 11 9 7 8 8 9 7 6 7 7 6 6 7 5
3 3 3 3 4 6 8 8 6 7 11 9 7 7 6 5 8 7 5 7 9 11 11 13 11 8 7 8 9 10 11 11 10 8 8 9 10 9 7 7 6 6 6 5 5
2 2 1 2 6 7 7 4 4 5 14 13 10 9 7 5 8 4 4 6 8 10 10 11 9 8 8 9 9 12 8 8 9 10 13 9 15 11 9 8 7 6 7 6 5
-1 -0 -1 0 6 8 6 5 4 5 21 11 10 6 7 7 6 6 4 6 10 9 9 12 10 10 10 8 8 10 7 8 9 10 11 11 14 12 9 9 8 8 7 6 5
-1 -1 -1 1 2 3 4 3 5 13 20 12 8 9 10 8 7 5 7 5 6 8 8 9 7 8 9 7 7 6 8 9 9 11 16 12 13 12 11 9 9 8 7 6 5
-1 -1 -0 -0 4 1 2 4 14 17 11 12 10 8 9 10 9 7 9 10 11 13 12 10 10 8 7 9 8 8 11 14 17 16 17 11 12 12 9 8 8 7 6 6 5
-1 -1 -0 0 -0 0 2 9 17 14 14 10 10 10 11 9 10 9 9 11 9 10 12 13 14 10 8 9 10 10 11 14 19 19 15 11 14 12 8 7 7 6 6 5 5
-1 1 1 1 -0 1 6 14 14 13 11 10 11 13 12 10 9 10 10 11 10 10 13 13 13 8 7 7 8 10 11 9 13 13 15 13 11 9 8 9 7 7 6 6 6
2 3 3 0 -0 3 9 13 11 7 8 8 14 14 16 14 13 11 10 9 9 8 8 10 13 9 8 7 8 9 8 13 14 17 19 14 13 13 10 10 8 8 7 7 6
2 6 2 0 1 6 13 11 9 6 6 9 12 14 14 14 13 13 11 9 8 8 8 9 11 10 8 10 11 10 10 12 12 13 17 18 15 9 9 8 8 8 7 6 6
4 9 2 1 9 8 11 9 7 7 6 7 10 12 14 13 14 13 13 10 7 7 10 9 11 12 11 8 7 8 10 11 13 15 13 14 14 8 8 8 7 7 6 6 6
6 7 2 2 12 11 9 8 7 8 8 8 9 10 11 13 15 13 11 8 7 9 9 8 11 15 13 11 9 9 9 10 11 12 14 15 14 8 7 7 7 7 6 6 6
6 10 7 5 6 9 10 10 10 6 7 7 8 8 11 13 12 13 12 9 8 8 7 6 11 12 15 12 10 10 9 9 11 14 13 12 12 10 8 8 7 7 6 6 6
5 9 7 11 10 9 9 9 10 10 7 7 10 9 11 14 14 14 12 11 9 7 9 9 12 10 10 10 10 9 9 9 10 11 12 11 11 9 8 8 7 6 6 6 6
7 8 6 8 7 9 9 10 10 9 8 9 10 9 9 12 13 14 13 13 13 11 12 11 11 10 11 9 10 10 9 9 9 9 10 10 10 8 6 7 7 6 6 6 6
3 3 6 8 9 10 10 9 9 8 7 7 7 8 9 9 9 10 11 11 12 13 13 12 13 11 13 10 11 13 10 9 9 9 9 11 10 8 8 7 7 6 6 6 6